User: anonymous   Login
Location: Unspecified
(0.0000°N, 0.0000°E)
Time: 19:57:06
(UTC+00:00)
Language:

FALCONSAT 3 - Orbit

View from above orbital plane
View from above orbital plane
View from above satellite
View from above satellite

Ground track
Ground track

The orbit data is extracted from the following two-line orbital elements,

1 30776U 07006E   17269.07367104  .00004552  00000-0  14131-3 0  9998
2 30776  35.4350 146.3357 0002601 178.6751 181.3982 15.32884206583746
Epoch (UTC): 26 September 2017 01:46:05
Eccentricity: 0.0002601
inclination: 35.4350°
perigee height: 465 km
apogee height: 469 km
right ascension of ascending node: 146.3357°
argument of perigee: 178.6751°
revolutions per day: 15.32884206
mean anomaly at epoch: 181.3982°
orbit number at epoch: 58374

The dashed part of the orbit path shows where the satellite is in the earth's shadow,  

DLR